AirNav   TITAN Aviation Fuels
 
 1570 users online  

22CD Platte Valley Medical Center Heliport
Brighton, Colorado, USA

GOING TO BRIGHTON?


FAA INFORMATION EFFECTIVE 06 OCTOBER 2022

Location

FAA Identifier: 22CD
Lat/Long: 39-57-57.7200N 104-46-02.8500W
39-57.962000N 104-46.047500W
39.9660333,-104.7674583
(estimated)
Elevation: 5115 ft. / 1559 m (estimated)
From city: 6 miles E of BRIGHTON, CO
Time zone: UTC -6 (UTC -7 during Standard Time)
Zip code: 80601

Heliport Operations

Heliport use: Private use, MEDICAL USE.
Activation date: 04/2007
Control tower: no
ARTCC: DENVER CENTER
FSS: DENVER FLIGHT SERVICE STATION
Attendance: CONTINUOUS
Segmented circle: no

Heliport Communications

WX ASOS at DEN (8 nm SE): PHONE 303-342-1920
WX AWOS-3 at EIK (13 nm W): 133.825 (303-604-4339)
WX AWOS-3 at CFO (15 nm SE): 119.025 (303-261-9104)
WX AWOS-3 at BJC (16 nm W): PHONE 720-887-8067

Nearby radio navigation aids

VOR radial/distance  VOR name  Freq  Var
DVVr295/7.9MILE HIGH VORTAC114.7008E
DENr324/10.4DENVER VOR/DME117.9008E
BJCr068/17.4JEFFCO VOR/DME115.4011E
FQFr327/17.9FALCON VORTAC116.3011E
GLLr184/33.7GILL VOR/DME114.2013E

Heliport Services

Runway Information

Helipad H1

Dimensions: 65 x 65 ft. / 20 x 20 m
Surface: concrete
Latitude: 39-57.962000N
Longitude: 104-46.047500W
Elevation: 5115.0 ft.
Traffic pattern: leftleft

Heliport Ownership and Management from official FAA records

Ownership: Privately-owned
Owner: PLATTE VALLEY MEDICAL CENTER
1600 PRAIRIE CENTER PARKWAY
BRIGHTON, CO 80601
Phone 303-498-1600
Manager: CHIYON LEE
1600 PRAIRIE CENTER PARKWAY
BRIGHTON, CO 80601
Phone 303-498-1450

Additional Remarks

MAINTAIN COMMS WITH HECKENDORF RANCH ARPT ON 122.9.
FOR CD CTC DENVER APCH AT 303-342-1916.

Instrument Procedures

There are no published instrument procedures at 22CD.

Some nearby airports with instrument procedures:

KDEN - Denver International Airport (8 nm SE)
KEIK - Erie Municipal Airport (13 nm W)
KCFO - Colorado Air and Space Port Airport (15 nm SE)
KBKF - Buckley Space Force Base (16 nm S)
KBJC - Rocky Mountain Metro Airport (16 nm W)
 
Loc | Ops | Rwys | IFR | FBO | Links
Com | Nav | Svcs | Stats | Notes

AirBoss

 
Area around 22CD (Platte Valley Medical Center Heliport)
 
Road maps at: MapQuest Bing Google
 
Aerial photo
No photo
 
Sectional chart

 
Airport distance calculator
Flying to Platte Valley Medical Center Heliport? Find the distance to fly.

From to 22CD

Sunrise and sunset
Times for 06-Oct-2022
 Local
(UTC-6)
 Zulu
(UTC)
Morning civil twilight06:3412:34
Sunrise07:0113:01
Sunset18:3300:33
Evening civil twilight19:0001:00

Current date and time
Zulu (UTC)  06-Oct-2022 14:29:37
Local (UTC-6)  06-Oct-2022 08:29:37
 
METAR
KDEN 
10nm SE 
061353Z 22007KT 10SM FEW120 FEW200 09/04 A3038 RMK AO2 SLP246 T00940044
KEIK 
13nm W 
061415Z AUTO 00000KT 10SM CLR 07/05 A3038 RMK AO2 T00730048 PWINO
KBKF 
15nm S 
061358Z 20004KT 10SM FEW110 FEW220 07/04 A3040 RMK AO2A SLP258 T00690042
KCFO 
15nm SE 
061347Z 21006KT 10SM SKC 11/03 A3039
KBJC 
16nm W 
061345Z 00000KT 10SM SKC 10/02 A3039
TAF
KDEN 
10nm SE 
061128Z 0612/0718 24006KT P6SM FEW200 FM061800 10008KT P6SM SCT200 FM070200 11012KT P6SM SCT100 BKN200 FM070700 07012KT P6SM SCT040 BKN150 FM071100 05010KT P6SM BKN025
KBKF 
15nm S 
060900Z 0609/0715 VRB06KT 9999 SKC 510033 QNH3030INS BECMG 0712/0713 VRB06KT 8000 BR OVC003 510033 QNH3043INS TX19/0622Z TN06/0712Z
KBJC 
16nm W 
061128Z 0612/0712 VRB05KT P6SM FEW200 FM061800 10008KT P6SM SCT200 FM070200 34007KT P6SM SCT100 BKN200 FM071100 36007KT P6SM BKN025
NOTAMs
Click for the latest NOTAMs
NOTAMs are issued by the DoD/FAA and will open in a separate window not controlled by AirNav.

 

 
 

Would you like to see your business listed on this page?

 If your business provides an interesting product or service to pilots, flight crews, aircraft, or users of the Platte Valley Medical Center Heliport, you should consider listing it here.  To start the listing process, click on the button below
 
Add a business
 

Other Pages about Platte Valley Medical Center Heliport

Update a link
 
Copyright © AirNav, LLC. All rights reserved. Privacy Policy  Contact